TimeCDT,TemperatureF,Dew PointF,Humidity,Sea Level PressureIn,VisibilityMPH,Wind Direction,Wind SpeedMPH,Gust SpeedMPH,PrecipitationIn,Events,Conditions,WindDirDegrees,DateUTC
12:15 AM,17.6,17.6,100,30.01,10.0,NNW,20.7,-,N/A,,Unknown,330,2013-03-10 06:15:00
12:35 AM,17.6,17.6,100,30.00,10.0,NW,26.5,32.2,N/A,,Unknown,320,2013-03-10 06:35:00
12:55 AM,17.6,17.6,100,30.02,10.0,NNW,25.3,32.2,N/A,,Unknown,330,2013-03-10 06:55:00
1:15 AM,17.6,17.6,100,30.02,10.0,NNW,25.3,32.2,N/A,,Unknown,330,2013-03-10 07:15:00
1:35 AM,17.6,17.6,100,30.02,10.0,NNW,28.8,34.5,N/A,,Unknown,330,2013-03-10 07:35:00
1:55 AM,17.6,17.6,100,30.04,10.0,NW,21.9,-,N/A,,Unknown,320,2013-03-10 07:55:00
3:15 AM,17.6,17.6,100,30.04,10.0,NNW,21.9,-,N/A,,Unknown,330,2013-03-10 08:15:00
3:35 AM,19.4,17.6,93,30.04,10.0,NNW,25.3,-,N/A,,Unknown,330,2013-03-10 08:35:00
3:55 AM,17.6,17.6,100,30.05,10.0,NNW,23.0,29.9,N/A,,Unknown,330,2013-03-10 08:55:00
4:15 AM,17.6,17.6,100,30.06,10.0,NNW,20.7,-,N/A,,Unknown,330,2013-03-10 09:15:00
4:35 AM,17.6,17.6,100,30.05,10.0,NNW,24.2,-,N/A,,Unknown,330,2013-03-10 09:35:00
4:55 AM,17.6,15.8,93,30.05,10.0,NNW,26.5,29.9,N/A,,Unknown,330,2013-03-10 09:55:00
5:15 AM,17.6,15.8,93,30.07,10.0,NW,23.0,26.5,N/A,,Unknown,320,2013-03-10 10:15:00
5:35 AM,15.8,15.8,100,30.08,10.0,NNW,21.9,-,N/A,,Unknown,330,2013-03-10 10:35:00
5:55 AM,15.8,15.8,100,30.09,10.0,NNW,24.2,28.8,N/A,Snow,Light Snow,330,2013-03-10 10:55:00
6:15 AM,15.8,14.0,93,30.10,10.0,NNW,25.3,-,N/A,Snow,Light Snow,330,2013-03-10 11:15:00
7:35 AM,14.0,14.0,100,30.15,10.0,NNW,25.3,28.8,0.01,Snow,Light Snow,330,2013-03-10 12:35:00
7:55 AM,14.0,12.2,93,30.16,10.0,NNW,23.0,-,0.01,Snow,Light Snow,330,2013-03-10 12:55:00
8:15 AM,14.0,10.4,86,30.16,10.0,NNW,21.9,28.8,N/A,,Unknown,330,2013-03-10 13:15:00
8:35 AM,10.4,8.6,92,30.16,10.0,NW,16.1,-,N/A,,Unknown,320,2013-03-10 13:35:00
8:55 AM,10.4,8.6,92,30.16,10.0,NNW,21.9,-,N/A,,Unknown,330,2013-03-10 13:55:00
9:15 AM,10.4,8.6,92,30.17,10.0,NNW,21.9,27.6,N/A,,Unknown,330,2013-03-10 14:15:00
9:35 AM,10.4,10.4,100,30.16,10.0,NNW,25.3,-,N/A,,Unknown,330,2013-03-10 14:35:00
9:55 AM,12.2,10.4,92,30.16,10.0,NNW,24.2,-,N/A,,Unknown,330,2013-03-10 14:55:00
10:15 AM,14.0,12.2,93,30.17,10.0,NNW,21.9,26.5,N/A,,Unknown,340,2013-03-10 15:15:00
10:35 AM,14.0,14.0,100,30.18,10.0,NNW,20.7,27.6,N/A,,Unknown,340,2013-03-10 15:35:00
10:55 AM,15.8,14.0,93,30.18,10.0,NNW,19.6,-,N/A,,Unknown,340,2013-03-10 15:55:00
11:15 AM,15.8,14.0,93,30.18,10.0,NNW,23.0,-,N/A,,Unknown,340,2013-03-10 16:15:00
11:35 AM,15.8,14.0,93,30.17,10.0,NNW,23.0,27.6,N/A,,Unknown,340,2013-03-10 16:35:00
11:55 AM,17.6,15.8,93,30.16,10.0,NNW,23.0,-,N/A,,Unknown,340,2013-03-10 16:55:00
12:15 PM,17.6,15.8,93,30.17,10.0,NNW,24.2,27.6,N/A,,Unknown,340,2013-03-10 17:15:00
12:35 PM,17.6,15.8,93,30.16,10.0,NNW,24.2,31.1,N/A,,Unknown,330,2013-03-10 17:35:00
12:55 PM,17.6,15.8,93,30.16,10.0,NNW,21.9,-,N/A,,Unknown,330,2013-03-10 17:55:00
1:15 PM,17.6,15.8,93,30.17,10.0,NNW,19.6,25.3,N/A,,Unknown,330,2013-03-10 18:15:00
1:35 PM,17.6,15.8,93,30.18,10.0,NNW,19.6,-,N/A,,Unknown,340,2013-03-10 18:35:00
1:55 PM,17.6,15.8,93,30.18,10.0,NNW,19.6,-,N/A,,Unknown,340,2013-03-10 18:55:00
2:15 PM,17.6,15.8,93,30.18,10.0,NNW,16.1,-,N/A,,Unknown,340,2013-03-10 19:15:00
2:35 PM,19.4,15.8,86,30.17,10.0,North,19.6,-,N/A,,Unknown,350,2013-03-10 19:35:00
2:55 PM,19.4,15.8,86,30.16,10.0,NNW,20.7,-,N/A,,Unknown,330,2013-03-10 19:55:00
3:15 PM,19.4,15.8,86,30.17,10.0,NNW,16.1,-,N/A,,Unknown,340,2013-03-10 20:15:00
3:35 PM,19.4,15.8,86,30.16,10.0,NNW,20.7,-,N/A,,Unknown,340,2013-03-10 20:35:00
3:55 PM,19.4,15.8,86,30.17,10.0,North,17.3,23.0,N/A,,Unknown,350,2013-03-10 20:55:00
4:15 PM,19.4,15.8,86,30.17,10.0,NNW,19.6,-,N/A,,Unknown,330,2013-03-10 21:15:00
4:35 PM,19.4,15.8,86,30.17,10.0,NNW,18.4,-,N/A,,Unknown,340,2013-03-10 21:35:00
4:55 PM,19.4,15.8,86,30.14,10.0,NNW,23.0,-,N/A,,Unknown,330,2013-03-10 21:55:00
5:15 PM,19.4,15.8,86,30.13,10.0,NNW,23.0,-,N/A,,Unknown,340,2013-03-10 22:15:00
5:35 PM,19.4,15.8,86,30.12,10.0,NNW,21.9,-,N/A,,Unknown,340,2013-03-10 22:35:00
5:55 PM,19.4,14.0,80,30.12,10.0,NNW,20.7,26.5,N/A,,Unknown,340,2013-03-10 22:55:00
6:15 PM,17.6,14.0,86,30.11,10.0,NNW,19.6,-,N/A,,Unknown,340,2013-03-10 23:15:00
6:35 PM,17.6,14.0,86,30.11,10.0,NNW,18.4,-,N/A,,Unknown,340,2013-03-10 23:35:00
6:55 PM,17.6,14.0,86,30.11,10.0,NNW,16.1,21.9,N/A,,Unknown,340,2013-03-10 23:55:00
7:15 PM,15.8,14.0,93,30.11,10.0,NNW,18.4,-,N/A,,Unknown,340,2013-03-11 00:15:00
7:35 PM,15.8,14.0,93,30.12,10.0,NNW,12.7,-,N/A,,Unknown,340,2013-03-11 00:35:00
7:55 PM,14.0,12.2,93,30.13,10.0,NNW,16.1,-,N/A,,Unknown,340,2013-03-11 00:55:00
8:15 PM,14.0,10.4,86,30.12,10.0,NW,12.7,-,N/A,,Unknown,320,2013-03-11 01:15:00
8:35 PM,12.2,10.4,92,30.13,10.0,NNW,13.8,-,N/A,,Unknown,330,2013-03-11 01:35:00
8:55 PM,10.4,10.4,100,30.11,10.0,NNW,12.7,-,N/A,,Unknown,330,2013-03-11 01:55:00
9:15 PM,10.4,8.6,92,30.11,10.0,NNW,12.7,-,N/A,,Unknown,330,2013-03-11 02:15:00
9:35 PM,8.6,8.6,100,30.10,10.0,NW,8.1,-,N/A,,Unknown,320,2013-03-11 02:35:00
9:55 PM,8.6,8.6,100,30.10,10.0,NW,8.1,-,N/A,,Unknown,320,2013-03-11 02:55:00
10:15 PM,8.6,8.6,100,30.09,10.0,NW,9.2,-,N/A,,Unknown,320,2013-03-11 03:15:00
10:35 PM,6.8,6.8,100,30.10,10.0,NNW,9.2,-,N/A,,Unknown,330,2013-03-11 03:35:00
10:55 PM,6.8,6.8,100,30.11,10.0,NW,10.4,-,N/A,,Unknown,320,2013-03-11 03:55:00
11:15 PM,6.8,5.0,92,30.11,10.0,NNW,8.1,-,N/A,,Unknown,330,2013-03-11 04:15:00
11:35 PM,6.8,5.0,92,30.10,10.0,North,8.1,-,N/A,,Unknown,350,2013-03-11 04:35:00
12:15 AM,6.8,5.0,92,30.08,10.0,NW,6.9,-,N/A,,Unknown,320,2013-03-11 05:15:00
12:35 AM,5.0,5.0,100,30.08,10.0,NW,6.9,-,N/A,,Unknown,320,2013-03-11 05:35:00
12:55 AM,5.0,5.0,100,30.07,10.0,NNW,6.9,-,N/A,,Unknown,330,2013-03-11 05:55:00